{"data":{"norad_id":61623,"epoch":"2026-05-25T04:14:23.107776Z","epoch_age_seconds":56813,"freshness":"FRESH","line1":"1 61623U 24191C   26145.17665634 -.00000407  00000+0 -52702-5 0  9994","line2":"2 61623  43.0023  86.0505 0001143 262.6283  97.4438 15.27580590 89198","mean_motion":15.2758059,"eccentricity":0.0001143,"inclination_deg":43.0023,"raan_deg":86.0505,"arg_perigee_deg":262.6283,"mean_anomaly_deg":97.4438,"bstar":-5.2702e-6,"rev_number":8919,"period_min":94.266712304848,"perigee_km":482.26309599912,"apogee_km":483.83156273682,"semimajor_km":6861.184329368,"source":"CELESTRAK","updated_at":"2026-05-25T13:38:19.406682Z"}}